STARLINK-31270, 59154

Orbit data source: Space-Track

STARLINK-31270, 59154 is a payload satellite owned by SpaceX/Seattle (US) in LEO that was launched on Mon, 04 Mar 2024 UTC via an FALCON 9 launch vehicle from the Air Force Eastern Test Range (AFETR). Payload-class satellites include a variety of spacecraft equipped with specific instruments for various scientific and technological missions. These include communications satellites like Starlink; space stations such as the ISS; scientific satellites like the Hubble; Earth observation satellites from companies like Planet Labs, Umbra, and HawkEye 360; GPS; miniature CubeSats for education and research; and military/defense satellites.

Loading next visibility...
Identifier
59154, 2024-044C
Orbit
LEO
Country
Flag of USUS
Related business
Manufacturer
SpaceX/Seattle
Mission
Operational Commercial Communications
Bus & Motor
STARLINK V2M, Unknown motor
Mass
730 kg wet, ~700 kg dry
Launch date (UTC)
2024-03-04 (2 years ago)
Launch vehicle
FALCON 9
Launch site
Air Force Eastern Test Range (AFETR)
Object type
Payload
Rocket body
Debris
Shape & HBR
Box + 2 Pan, 17.7 m
Radar Cross Section
33.884 m², Large (>1 m²)

Expand to show TLE details & history
Last TLE update: 2 days ago

TLE from 2 days ago
0 STARLINK-31270
1 59154U 24044C   26171.27473992  .00003220  00000-0  12643-3 0  9994
2 59154  43.0045 247.7729 0001089 268.7073  91.3654 15.27595539129282
Epoch: 2026-06-20T06:35Z
TLE epoch observation values (Epoch: 2026-06-20T06:35:37.529Z)
Latitude
Longitude
-119.62518°
Altitude
482.796 km
Speed
7.626 km/s
True Right ascension
16h 31m 05s
True Declination
0° 00' 00"
Sunlit
Object was in full shadow at epoch
Visualization orbit readout
Latitude
Unknown
Longitude
Unknown
Altitude
Unknown
Speed
Unknown
Apparent Right ascension
Unknown
Apparent Declination
Unknown
Sunlit
N/A
Visualization observer readout
Local Sidereal Time
21:42:46
Azimuth
Unknown
Elevation
Unknown
Doppler factor
Unknown
Orbital elements
Apogee altitude
485.694 km
Perigee altitude
484.2 km
Semi-major axis
6,863.084 km
Eccentricity
0.00011
Inclination
43.0045°
RAAN
247.7729°
Arg. of periapsis
268.7073°
True anomaly
91.37788°
Mean anomaly
91.3654°
Eccentric anomaly
91.37164°
Mean motion
3.81737 °/min
Orbital period
94.31 mins
BSTAR
0.00012643
Loading maneuver chart data...
Computing Atmospheric mass density...
Loading historical data...
Loading historical data...
Loading historical data...
Loading historical data...
Loading historical data...
Loading historical data...
Loading historical data...

Documentation

Showing up to 5 results
|